| time (UTC) | temp C | wind direction | speed KPH | gust KPH | rain 1hr cm | rain 24hr cm | rain mn cm | humidity % | barometer mb |
| 20260503224504 | 15 | 275 | 3.2 | 14.5 | 0.00 | 0.00 | 0.00 | 67 | 1015.2 |
| 20260503223004 | 15 | 202 | 0.0 | 4.8 | 0.00 | 0.00 | 0.00 | 67 | 1014.8 |
| 20260503221504 | 15 | 202 | 1.6 | 4.8 | 0.00 | 0.00 | 0.00 | 66 | 1015.0 |
| 20260503220004 | 15 | 214 | 1.6 | 4.8 | 0.00 | 0.00 | 0.00 | 66 | 1015.0 |
| 20260503210005 | 16 | 216 | 1.6 | 4.8 | 0.00 | 0.00 | 0.00 | 64 | 1015.0 |
| 20260503201504 | 16 | 272 | 1.6 | 4.8 | 0.00 | 0.00 | 0.00 | 63 | 1015.1 |
| 20260503200005 | 16 | 272 | 1.6 | 4.8 | 0.00 | 0.00 | 0.00 | 63 | 1015.0 |
| 20260503194504 | 16 | 272 | 1.6 | 4.8 | 0.00 | 0.00 | 0.00 | 63 | 1014.9 |
| 20260503193004 | 16 | 276 | 0.0 | 12.9 | 0.00 | 0.00 | 0.00 | 63 | 1014.7 |
| 20260503190004 | 17 | 280 | 9.7 | 14.5 | 0.00 | 0.00 | 0.00 | 62 | 1014.3 |
| 20260503184504 | 17 | 271 | 0.0 | 9.7 | 0.00 | 0.00 | 0.00 | 63 | 1014.1 |
| 20260503183004 | 17 | 273 | 0.0 | 4.8 | 0.00 | 0.00 | 0.00 | 62 | 1013.7 |
| 20260503181505 | 17 | 271 | 1.6 | 4.8 | 0.00 | 0.00 | 0.00 | 62 | 1013.6 |
| 20260503180004 | 18 | 271 | 0.0 | 4.8 | 0.00 | 0.00 | 0.00 | 61 | 1013.4 |
| 20260503174504 | 18 | 311 | 3.2 | 4.8 | 0.00 | 0.00 | 0.00 | 59 | 1013.2 |
| 20260503173004 | 18 | 312 | 0.0 | 4.8 | 0.00 | 0.00 | 0.00 | 59 | 1013.2 |
| 20260503171505 | 18 | 316 | 3.2 | 9.7 | 0.00 | 0.00 | 0.00 | 58 | 1013.2 |
| 20260503081504 | 17 | 115 | 3.2 | 4.8 | 0.00 | 0.00 | 0.00 | 59 | 1016.1 |
| 20260503071504 | 15 | 157 | 0.0 | 3.2 | 0.00 | 0.00 | 0.00 | 68 | 1016.5 |
| 20260503054504 | 13 | 156 | 1.6 | 4.8 | 0.00 | 0.00 | 0.00 | 67 | 1016.0 |
| 20260503053004 | 13 | 156 | 1.6 | 4.8 | 0.00 | 0.00 | 0.00 | 67 | 1016.0 |
| 20260503051505 | 13 | 201 | 3.2 | 4.8 | 0.00 | 0.00 | 0.00 | 66 | 1015.9 |
| 20260503050005 | 13 | 201 | 1.6 | 3.2 | 0.00 | 0.00 | 0.00 | 66 | 1015.8 |
| 20260503044504 | 13 | 201 | 3.2 | 4.8 | 0.00 | 0.00 | 0.00 | 66 | 1015.8 |
| 20260503043004 | 13 | 201 | 1.6 | 4.8 | 0.00 | 0.00 | 0.00 | 65 | 1015.9 |
| 20260503041505 | 13 | 201 | 4.8 | 8.0 | 0.00 | 0.00 | 0.00 | 65 | 1016.1 |
| 20260503040004 | 13 | 201 | 1.6 | 4.8 | 0.00 | 0.00 | 0.00 | 65 | 1016.0 |
| 20260503034504 | 13 | 201 | 0.0 | 3.2 | 0.00 | 0.00 | 0.00 | 65 | 1016.0 |
| 20260503033004 | 13 | 201 | 0.0 | 4.8 | 0.00 | 0.00 | 0.00 | 65 | 1015.9 |
| 20260503031504 | 13 | 201 | 1.6 | 4.8 | 0.00 | 0.00 | 0.00 | 64 | 1015.9 |
| 20260503030004 | 14 | 201 | 1.6 | 4.8 | 0.00 | 0.00 | 0.00 | 64 | 1016.0 |
| 20260503024504 | 14 | 201 | 3.2 | 4.8 | 0.00 | 0.00 | 0.00 | 64 | 1016.1 |
| 20260503023005 | 14 | 228 | 1.6 | 4.8 | 0.00 | 0.00 | 0.00 | 63 | 1016.1 |
| 20260503021504 | 14 | 228 | 0.0 | 4.8 | 0.00 | 0.00 | 0.00 | 63 | 1016.3 |
| 20260503020004 | 15 | 228 | 1.6 | 3.2 | 0.00 | 0.00 | 0.00 | 63 | 1016.3 |
| 20260503014504 | 15 | 228 | 1.6 | 4.8 | 0.00 | 0.00 | 0.00 | 63 | 1016.4 |
| 20260503013005 | 15 | 229 | 1.6 | 4.8 | 0.00 | 0.00 | 0.00 | 62 | 1016.4 |
| 20260503011504 | 15 | 265 | 0.0 | 4.8 | 0.00 | 0.00 | 0.00 | 62 | 1016.5 |
| 20260503004504 | 16 | 265 | 0.0 | 4.8 | 0.00 | 0.00 | 0.00 | 62 | 1016.7 |
| 20260503003004 | 16 | 265 | 3.2 | 19.3 | 0.00 | 0.00 | 0.00 | 62 | 1016.7 |
| 20260502231504 | 17 | 208 | 8.0 | 16.1 | 0.00 | 0.00 | 0.00 | 54 | 1017.0 |
| 20260502230004 | 17 | 197 | 8.0 | 19.3 | 0.00 | 0.00 | 0.00 | 55 | 1016.8 |